�������l�o���
Date,Time,MP-1(��Sv/h),MP-2(��Sv/h),MP-3(��Sv/h),MP-4(��Sv/h),MP-5(��Sv/h),MP-6(��Sv/h),MP-7(��Sv/h),MP-8(��Sv/h),����,����(m/s),���J
2021/08/19,00:00,0.583,0.864,0.548,1.043,0.730,0.361,0.618,0.581,��,5.2,��
2021/08/19,00:10,0.581,0.864,0.550,1.045,0.731,0.359,0.618,0.578,��,6.2,��
2021/08/19,00:20,0.581,0.864,0.549,1.044,0.729,0.359,0.618,0.579,��,6.3,��
2021/08/19,00:30,0.582,0.863,0.550,1.045,0.728,0.359,0.617,0.579,��,5.9,��
2021/08/19,00:40,0.581,0.866,0.549,1.045,0.729,0.360,0.617,0.578,��,5.7,��
2021/08/19,00:50,0.581,0.864,0.548,1.045,0.731,0.360,0.618,0.578,��,5.0,��
2021/08/19,01:00,0.581,0.864,0.548,1.045,0.730,0.360,0.619,0.579,��쐼,4.9,��
2021/08/19,01:10,0.582,0.864,0.549,1.043,0.729,0.360,0.618,0.580,��,4.7,��
2021/08/19,01:20,0.581,0.865,0.551,1.045,0.731,0.360,0.618,0.578,��,4.9,��
2021/08/19,01:30,0.581,0.864,0.550,1.046,0.731,0.360,0.616,0.579,��,4.5,��
2021/08/19,01:40,0.582,0.864,0.548,1.046,0.730,0.361,0.618,0.580,��,4.5,��
2021/08/19,01:50,0.582,0.865,0.548,1.046,0.729,0.362,0.616,0.580,��,4.7,��
2021/08/19,02:00,0.583,0.865,0.550,1.047,0.730,0.360,0.617,0.581,��,4.4,��
2021/08/19,02:10,0.580,0.867,0.549,1.047,0.731,0.361,0.617,0.580,��,4.5,��
2021/08/19,02:20,0.584,0.865,0.551,1.045,0.730,0.359,0.618,0.580,��,4.2,��
2021/08/19,02:30,0.581,0.864,0.550,1.047,0.730,0.360,0.618,0.580,��,4.2,��
2021/08/19,02:40,0.582,0.863,0.550,1.046,0.730,0.360,0.618,0.579,��,2.2,��
2021/08/19,02:50,0.582,0.862,0.550,1.047,0.733,0.360,0.619,0.580,�쐼,2.0,��
2021/08/19,03:00,0.582,0.867,0.549,1.043,0.732,0.360,0.619,0.580,�쐼,1.7,��
2021/08/19,03:10,0.582,0.866,0.549,1.045,0.731,0.359,0.618,0.580,��,0.8,��
2021/08/19,03:20,0.582,0.866,0.550,1.046,0.731,0.360,0.619,0.581,�쐼,2.3,��
2021/08/19,03:30,0.581,0.866,0.550,1.046,0.731,0.361,0.618,0.580,�쐼,2.6,��
2021/08/19,03:40,0.584,0.864,0.550,1.046,0.730,0.360,0.617,0.580,��쐼,2.6,��
2021/08/19,03:50,0.584,0.865,0.548,1.048,0.731,0.360,0.619,0.579,��쐼,2.6,��
2021/08/19,04:00,0.583,0.865,0.548,1.048,0.731,0.360,0.618,0.580,��쐼,2.6,��
2021/08/19,04:10,0.584,0.863,0.549,1.044,0.730,0.360,0.618,0.580,��쐼,3.3,��
2021/08/19,04:20,0.582,0.865,0.549,1.044,0.731,0.360,0.620,0.580,�쐼,4.5,��
2021/08/19,04:30,0.583,0.866,0.549,1.047,0.730,0.361,0.618,0.580,�쐼,4.3,��
2021/08/19,04:40,0.582,0.864,0.550,1.045,0.732,0.359,0.619,0.580,�쐼,4.5,��
2021/08/19,04:50,0.582,0.865,0.548,1.044,0.729,0.360,0.618,0.578,�쐼,3.8,��
2021/08/19,05:00,0.583,0.863,0.549,1.048,0.731,0.360,0.619,0.580,��쐼,2.3,��
2021/08/19,05:10,0.582,0.866,0.549,1.047,0.731,0.361,0.618,0.580,�쐼,2.6,��
2021/08/19,05:20,0.583,0.863,0.550,1.048,0.732,0.360,0.618,0.582,���쐼,2.9,��
2021/08/19,05:30,0.583,0.863,0.549,1.046,0.730,0.359,0.619,0.581,�쐼,2.2,��
2021/08/19,05:40,0.583,0.864,0.549,1.048,0.733,0.359,0.619,0.581,��쐼,3.1,��
2021/08/19,05:50,0.583,0.866,0.550,1.049,0.732,0.359,0.617,0.580,��쐼,3.8,��
2021/08/19,06:00,0.584,0.864,0.547,1.046,0.733,0.358,0.619,0.579,��쐼,4.4,��
2021/08/19,06:10,0.581,0.865,0.550,1.048,0.731,0.358,0.620,0.580,��쐼,4.2,��
2021/08/19,06:20,0.581,0.866,0.550,1.045,0.733,0.358,0.618,0.580,��쐼,4.2,��
2021/08/19,06:30,0.582,0.866,0.549,1.046,0.732,0.360,0.621,0.581,��쐼,2.6,��
2021/08/19,06:40,0.582,0.866,0.547,1.047,0.731,0.360,0.620,0.582,��,2.9,��
2021/08/19,06:50,0.584,0.864,0.549,1.048,0.730,0.360,0.620,0.581,��,3.0,��
2021/08/19,07:00,0.583,0.863,0.549,1.047,0.731,0.358,0.619,0.581,��쐼,1.4,��
2021/08/19,07:10,0.583,0.863,0.549,1.050,0.732,0.359,0.621,0.581,���k��,0.6,��
2021/08/19,07:20,0.584,0.864,0.548,1.049,0.731,0.359,0.620,0.582,-,CALM,��
2021/08/19,07:30,0.583,0.866,0.548,1.047,0.731,0.360,0.619,0.581,���쓌,0.9,��
2021/08/19,07:40,0.585,0.864,0.548,1.048,0.731,0.360,0.619,0.580,-,CALM,��
2021/08/19,07:50,0.584,0.864,0.549,1.047,0.731,0.361,0.619,0.580,��쓌,0.9,��
2021/08/19,08:00,0.586,0.863,0.550,1.048,0.732,0.360,0.619,0.580,��쓌,2.8,��
2021/08/19,08:10,0.584,0.866,0.549,1.049,0.732,0.358,0.619,0.580,��쓌,4.0,��
2021/08/19,08:20,0.584,0.863,0.549,1.048,0.731,0.359,0.619,0.578,��쓌,4.3,��
2021/08/19,08:30,0.584,0.863,0.548,1.049,0.730,0.361,0.620,0.578,��쓌,4.4,��
2021/08/19,08:40,0.581,0.863,0.548,1.046,0.730,0.359,0.617,0.578,��쓌,4.8,��
2021/08/19,08:50,0.583,0.863,0.549,1.045,0.730,0.360,0.619,0.580,��쓌,4.5,��
2021/08/19,09:00,0.582,0.866,0.548,1.047,0.733,0.357,0.620,0.577,��쓌,5.1,��
2021/08/19,09:10,0.582,0.864,0.546,1.051,0.730,0.360,0.619,0.578,��쓌,5.7,��
2021/08/19,09:20,0.583,0.866,0.545,1.049,0.732,0.359,0.618,0.579,��,6.4,��
2021/08/19,09:30,0.582,0.865,0.550,1.049,0.735,0.358,0.618,0.579,��,4.4,��
2021/08/19,09:40,0.582,0.862,0.547,1.048,0.734,0.359,0.618,0.577,��,3.3,��
2021/08/19,09:50,0.582,0.868,0.547,1.047,0.735,0.359,0.619,0.578,��,4.4,��
2021/08/19,10:00,0.582,0.866,0.547,1.050,0.734,0.359,0.619,0.578,��,3.9,��
2021/08/19,10:10,0.583,0.868,0.549,1.050,0.735,0.361,0.619,0.578,��,4.0,��
2021/08/19,10:20,0.586,0.868,0.548,1.048,0.736,0.362,0.618,0.578,��,3.9,��
2021/08/19,10:30,0.584,0.868,0.548,1.049,0.737,0.361,0.619,0.579,��,4.7,��
2021/08/19,10:40,0.585,0.868,0.550,1.050,0.734,0.363,0.618,0.579,��,5.9,��
2021/08/19,10:50,0.585,0.869,0.549,1.052,0.735,0.362,0.619,0.579,��쓌,6.2,��
2021/08/19,11:00,0.587,0.868,0.549,1.050,0.736,0.362,0.620,0.579,��,5.5,-
2021/08/19,11:10,0.586,0.870,0.549,1.048,0.737,0.361,0.619,0.579,��,4.8,-
2021/08/19,11:20,0.585,0.869,0.550,1.051,0.737,0.360,0.619,0.580,��,5.7,-
2021/08/19,11:30,0.586,0.869,0.548,1.052,0.735,0.361,0.620,0.580,��,5.1,-
2021/08/19,11:40,0.587,0.872,0.548,1.050,0.737,0.361,0.620,0.579,��,5.1,-
2021/08/19,11:50,0.585,0.869,0.549,1.051,0.737,0.360,0.619,0.580,��,5.5,-
2021/08/19,12:00,0.585,0.869,0.549,1.051,0.734,0.361,0.620,0.580,��,7.3,-
2021/08/19,12:10,0.585,0.869,0.550,1.051,0.735,0.361,0.620,0.579,��,8.0,-
2021/08/19,12:20,0.586,0.870,0.549,1.050,0.735,0.360,0.620,0.580,��,8.5,-
2021/08/19,12:30,0.587,0.870,0.550,1.052,0.736,0.361,0.620,0.579,��,8.7,-
2021/08/19,12:40,0.587,0.870,0.550,1.050,0.739,0.361,0.620,0.579,��,6.2,-
2021/08/19,12:50,0.587,0.868,0.551,1.053,0.737,0.361,0.621,0.578,��,7.6,��
2021/08/19,13:00,0.585,0.869,0.552,1.053,0.737,0.361,0.621,0.580,��,8.9,�L
2021/08/19,13:10,0.586,0.870,0.552,1.052,0.736,0.361,0.622,0.580,��,9.9,��
2021/08/19,13:20,0.586,0.867,0.553,1.050,0.738,0.361,0.621,0.580,��,9.1,��
2021/08/19,13:30,0.586,0.866,0.549,1.051,0.738,0.360,0.621,0.580,��,8.3,��
2021/08/19,13:40,0.587,0.867,0.552,1.052,0.739,0.362,0.622,0.581,��,7.6,��
2021/08/19,13:50,0.586,0.869,0.552,1.052,0.739,0.361,0.622,0.581,��,6.2,��
2021/08/19,14:00,0.588,0.871,0.553,1.054,0.740,0.360,0.623,0.580,��,7.7,��
2021/08/19,14:10,0.587,0.868,0.552,1.055,0.739,0.362,0.621,0.581,��,9.5,��
2021/08/19,14:20,0.585,0.871,0.552,1.055,0.740,0.362,0.621,0.580,��,7.8,��
2021/08/19,14:30,0.588,0.871,0.554,1.055,0.738,0.361,0.621,0.581,��,9.6,��
2021/08/19,14:40,0.587,0.872,0.553,1.054,0.742,0.361,0.622,0.580,��,10.5,��
2021/08/19,14:50,0.588,0.872,0.552,1.052,0.738,0.362,0.622,0.583,��,7.0,��
2021/08/19,15:00,0.588,0.869,0.552,1.053,0.740,0.363,0.622,0.583,��,7.2,��
2021/08/19,15:10,0.589,0.873,0.551,1.052,0.740,0.362,0.624,0.583,��,6.6,��
2021/08/19,15:20,0.589,0.875,0.553,1.054,0.740,0.364,0.625,0.583,��,6.8,��
2021/08/19,15:30,0.589,0.875,0.552,1.053,0.743,0.363,0.624,0.582,��,5.9,��
2021/08/19,15:40,0.588,0.876,0.555,1.054,0.744,0.364,0.625,0.584,��쐼,4.3,��
2021/08/19,15:50,0.589,0.874,0.555,1.055,0.740,0.364,0.626,0.581,��,5.2,��
2021/08/19,16:00,0.588,0.875,0.554,1.055,0.744,0.364,0.626,0.583,��,5.7,��
2021/08/19,16:10,0.588,0.876,0.556,1.055,0.744,0.365,0.624,0.583,��,6.6,��
2021/08/19,16:20,0.589,0.875,0.555,1.056,0.746,0.364,0.625,0.581,��쐼,5.3,��
2021/08/19,16:30,0.588,0.873,0.556,1.056,0.745,0.363,0.624,0.583,��,4.2,��
2021/08/19,16:40,0.590,0.874,0.554,1.059,0.744,0.364,0.623,0.581,��,4.8,��
2021/08/19,16:50,0.590,0.875,0.554,1.058,0.746,0.364,0.623,0.582,��,4.7,��
2021/08/19,17:00,0.589,0.876,0.555,1.059,0.746,0.363,0.623,0.583,��쐼,5.0,��
2021/08/19,17:10,0.591,0.875,0.554,1.059,0.742,0.363,0.622,0.581,��,4.7,��
2021/08/19,17:20,0.589,0.875,0.555,1.058,0.743,0.363,0.624,0.583,��,4.2,��
2021/08/19,17:30,0.588,0.875,0.553,1.059,0.744,0.363,0.625,0.581,��,4.3,��
2021/08/19,17:40,0.589,0.874,0.553,1.056,0.745,0.363,0.622,0.582,��,4.4,��
2021/08/19,17:50,0.588,0.873,0.552,1.058,0.744,0.361,0.623,0.582,��,3.7,��
2021/08/19,18:00,0.589,0.873,0.553,1.059,0.742,0.363,0.622,0.583,��,4.3,��
2021/08/19,18:10,0.588,0.875,0.553,1.057,0.743,0.362,0.622,0.583,��,4.5,��
2021/08/19,18:20,0.589,0.874,0.553,1.057,0.742,0.362,0.622,0.582,��쐼,4.6,��
2021/08/19,18:30,0.589,0.875,0.555,1.057,0.743,0.361,0.622,0.580,��쐼,4.5,��
2021/08/19,18:40,0.589,0.874,0.552,1.057,0.742,0.362,0.621,0.582,��쐼,4.3,��
2021/08/19,18:50,0.590,0.874,0.553,1.056,0.743,0.363,0.622,0.583,��쐼,3.3,��
2021/08/19,19:00,0.591,0.873,0.554,1.058,0.744,0.363,0.621,0.582,��쐼,2.3,��
2021/08/19,19:10,0.591,0.875,0.553,1.060,0.744,0.361,0.623,0.582,��쐼,1.5,��
2021/08/19,19:20,0.591,0.872,0.553,1.055,0.744,0.362,0.622,0.582,��쐼,1.9,��
2021/08/19,19:30,0.590,0.876,0.554,1.056,0.742,0.362,0.623,0.581,��쐼,2.6,��
2021/08/19,19:40,0.590,0.875,0.554,1.056,0.744,0.364,0.623,0.583,��,3.0,��
2021/08/19,19:50,0.590,0.878,0.553,1.058,0.744,0.364,0.622,0.581,��쐼,3.0,��
2021/08/19,20:00,0.590,0.878,0.554,1.057,0.742,0.361,0.622,0.582,��,3.1,��
2021/08/19,20:10,0.591,0.876,0.554,1.058,0.745,0.361,0.621,0.582,��,4.0,��
2021/08/19,20:20,0.591,0.877,0.551,1.058,0.745,0.362,0.621,0.581,��,4.5,��
2021/08/19,20:30,0.590,0.877,0.555,1.058,0.744,0.363,0.622,0.583,��,4.1,��
2021/08/19,20:40,0.591,0.875,0.552,1.058,0.743,0.362,0.620,0.581,��,4.3,��
2021/08/19,20:50,0.589,0.878,0.553,1.056,0.744,0.362,0.622,0.582,��,4.5,��
2021/08/19,21:00,0.590,0.877,0.555,1.058,0.745,0.362,0.620,0.581,��,4.9,��
2021/08/19,21:10,0.590,0.877,0.556,1.061,0.745,0.365,0.622,0.581,��,3.9,��
2021/08/19,21:20,0.590,0.877,0.554,1.060,0.743,0.364,0.622,0.583,��,4.7,��
2021/08/19,21:30,0.590,0.878,0.554,1.060,0.746,0.362,0.621,0.581,��쐼,4.6,��
2021/08/19,21:40,0.590,0.879,0.556,1.059,0.745,0.362,0.622,0.583,�쐼,3.7,��
2021/08/19,21:50,0.590,0.877,0.553,1.059,0.744,0.363,0.621,0.583,�쐼,2.6,��
2021/08/19,22:00,0.591,0.874,0.556,1.060,0.745,0.364,0.621,0.584,��쐼,3.8,��
2021/08/19,22:10,0.590,0.878,0.555,1.059,0.747,0.365,0.621,0.583,��쐼,3.5,��
2021/08/19,22:20,0.591,0.877,0.554,1.059,0.745,0.363,0.622,0.583,��쐼,3.7,��
2021/08/19,22:30,0.590,0.878,0.554,1.060,0.745,0.363,0.623,0.585,��쐼,3.5,��
2021/08/19,22:40,0.589,0.879,0.555,1.059,0.748,0.364,0.624,0.585,��쐼,2.5,��
2021/08/19,22:50,0.591,0.878,0.554,1.060,0.746,0.363,0.621,0.584,��쐼,1.7,��
2021/08/19,23:00,0.592,0.878,0.555,1.060,0.744,0.363,0.623,0.583,��쐼,1.5,��
2021/08/19,23:10,0.591,0.879,0.554,1.061,0.747,0.364,0.622,0.582,��쐼,0.9,��
2021/08/19,23:20,0.590,0.877,0.555,1.060,0.747,0.363,0.622,0.583,�쐼,2.0,��
2021/08/19,23:30,0.591,0.879,0.556,1.059,0.747,0.364,0.622,0.582,��,1.7,��
2021/08/19,23:40,0.592,0.878,0.554,1.061,0.746,0.364,0.624,0.582,�k��,2.2,��
2021/08/19,23:50,0.590,0.882,0.556,1.062,0.748,0.364,0.622,0.584,�k�k��,2.5,��
